Location: New York
(40.7140°N, 74.0060°W)
Time: 15:27:31
(UTC-05:00)

ISS - Visible Passes

Search period start: 24 November 2017 00:00
Search period end: 04 December 2017 00:00
Orbit: 401 x 407 km, 51.6° (Epoch: 25 November)

Date Brightness Start Highest point End Pass type
(mag) Time Alt. Az. Time Alt. Az. Time Alt. Az.
24 Nov -0.9 18:42:35 10° SSW 18:42:42 11° SSW 18:42:42 11° SSW visible
25 Nov -1.7 17:51:25 10° SSE 17:52:55 14° SE 17:52:55 14° SE visible
26 Nov -2.3 18:33:45 10° SW 18:35:44 33° SW 18:35:44 33° SW visible
27 Nov -2.9 17:41:43 10° SSW 17:44:42 33° SE 17:45:46 26° E visible
27 Nov -0.3 19:18:13 10° W 19:18:26 11° W 19:18:26 11° W visible
28 Nov -3.0 18:25:29 10° WSW 18:28:22 48° NW 18:28:22 48° NW visible
29 Nov -3.9 17:32:59 10° SW 17:36:15 86° SE 17:38:14 22° NE visible
29 Nov -0.5 19:10:37 10° WNW 19:10:53 11° WNW 19:10:53 11° WNW visible
30 Nov -2.3 18:17:37 10° W 18:20:28 27° NNW 18:20:41 26° NNW visible
01 Dec -2.9 17:24:46 10° WSW 17:27:55 42° NNW 17:30:24 15° NE visible
02 Dec -1.7 18:10:00 10° WNW 18:12:19 18° NNW 18:12:43 17° N visible
03 Dec -2.1 17:16:54 10° W 17:19:38 24° NNW 17:22:21 10° NNE visible
